Preview of NWS' New Version of Forecast
This preview is not operational and should not be used for support decisions.

Regional Weather Roundup (RWR)

Issued by National Weather Service (NWS)

                            
000
ASUS43 KLSX 241207
RWRMO 

WEATHER SUMMARY FOR MISSOURI
NATIONAL WEATHER SERVICE SPRINGFIELD MO
700 AM CDT SUN MAR 24 2019

NOTE: "FAIR" INDICATES FEW OR NO CLOUDS BELOW 12,000 FEET WITH NO
       SIGNIFICANT WEATHER AND/OR OBSTRUCTIONS TO VISIBILITY.
       CURRENT SKY AND/OR WEATHER CONDITIONS ARE NOT AVAILABLE FOR
       CHILLICOTHE AND FARMINGTON.

MOZ001>031-035>038-043-044-053-054-241300-
...NORTHERN AND WESTERN MISSOURI...
  
CITY           SKY/WX    TMP DP  RH WIND       PRES   REMARKS
KANSAS CTY INT CLOUDY    49  46  90 S13       29.94R                  
6HR MIN TEMP:  48; 6HR MAX TEMP:  49; 6HR PCP:  0.03;                

KANSAS C DTWN  CLOUDY    51  46  83 S5        29.95R                  
6HR MIN TEMP:  50; 6HR MAX TEMP:  52; 6HR PCP: TRACE;                

LEE'S SUMMIT   CLOUDY    49  45  86 S8        29.96R                  
6HR MIN TEMP:  47; 6HR MAX TEMP:  49;                                

ST JOSEPH        N/A    N/A N/A N/A MISG      29.93S                  
CHILLICOTHE      N/A     49  46  90 E8        29.95F                  
6HR MIN TEMP:  48; 6HR MAX TEMP:  52; 6HR PCP:  0.01;                

KIRKSVILLE     CLOUDY    47  45  93 SE9       30.00F                  
6HR MIN TEMP:  44; 6HR MAX TEMP:  47; 6HR PCP:  0.01;                

     
$$
MOZ066>068-077>081-088>096-101>105-241300-
...SOUTHWEST MISSOURI...
  
CITY           SKY/WX    TMP DP  RH WIND       PRES   REMARKS
SPRINGFIELD    MOCLDY    49  45  86 SE15      30.00S                  
6HR MIN TEMP:  49; 6HR MAX TEMP:  51; 6HR PCP:  0.05;                

JOPLIN         MOCLDY    51  49  92 S9        29.98R                  
6HR MIN TEMP:  50; 6HR MAX TEMP:  53; 6HR PCP:  0.01;                

BRANSON        FOG       46  46 100 SE6       30.04S VSB 1/8          
               
$$
MOZ032>034-039>042-045>050-055>058-069>072-241300-
...CENTRAL MISSOURI...  
  
CITY           SKY/WX    TMP DP  RH WIND       PRES   REMARKS
COLUMBIA       LGT RAIN  49  45  86 SE10      30.01S                  
6HR MIN TEMP:  49; 6HR MAX TEMP:  50; 6HR PCP:  0.02;                

JEFFERSON CITY CLOUDY    52  45  77 SE7       30.02S                  
6HR MIN TEMP:  47; 6HR MAX TEMP:  52; 6HR PCP: TRACE;                

ROLLA          CLOUDY    48  43  82 S13       30.03S                  
6HR MIN TEMP:  47; 6HR MAX TEMP:  49; 6HR PCP:  0.07;                

SEDALIA        CLOUDY    50  47  89 S6        30.00R                  
6HR MIN TEMP:  48; 6HR MAX TEMP:  51;                                

WARRENSBURG    CLOUDY    46  45  93 CALM      29.98S                  
OSAGE BEACH    CLOUDY    50  46  86 S7        30.02S                  
               
$$
MOZ051-052-059>065-241300-
...EAST CENTRAL MISSOURI...
  
CITY           SKY/WX    TMP DP  RH WIND       PRES   REMARKS
ST LOUIS INTL  LGT RAIN  47  42  83 SE12      30.08F                  
6HR MIN TEMP:  44; 6HR MAX TEMP:  50; 6HR PCP:  0.08;                

SPIRIT OF STL  LGT RAIN  47  44  90 E3        30.05F FOG              
6HR MIN TEMP:  43; 6HR MAX TEMP:  51; 6HR PCP:  0.04;                

ST CHARLES     LGT RAIN  45  43  93 E10       30.07F                  
6HR MIN TEMP:  42; 6HR MAX TEMP:  48; 6HR PCP:  0.01;                

                   
$$
MOZ072>076-082>087-097>100-106>115-241300-
...SOUTH CENTRAL AND SOUTHEAST MISSOURI...
  
CITY           SKY/WX    TMP DP  RH WIND       PRES   REMARKS
CAPE GIRARDEAU CLOUDY    49  42  77 CALM      30.13R                  
6HR MIN TEMP:  49; 6HR MAX TEMP:  52; 6HR PCP:  0.04;                

FARMINGTON     LGT RAIN  45  42  89 SE6       30.08F                  
6HR MIN TEMP:  45; 6HR MAX TEMP:  48; 6HR PCP:  0.07;                

POPLAR BLUFF   LGT RAIN  48  46  93 E8        30.09F                  
6HR MIN TEMP:  48; 6HR MAX TEMP:  52; 6HR PCP:  0.03;                

WEST PLAINS    CLOUDY    45  43  93 SE3       30.05F FOG              
6HR MIN TEMP:  45; 6HR MAX TEMP:  49; 6HR PCP:  0.16;                

                                       
$$